Location: Serin Observatory
(40.5200°N, 74.4500°W)
Time: 18:42:36
(UTC+00:00)

SL-8 R/B - Visible Passes

Search period start: 27 July 2017 00:00
Search period end: 06 August 2017 00:00
Orbit: 657 x 668 km, 48.4° (Epoch: 26 July)

Date Brightness Start Highest point End Pass type
(mag) Time Alt. Az. Time Alt. Az. Time Alt. Az.
27 Jul 4.3 06:26:45 49° E 06:26:45 49° E 06:30:24 10° ENE visible
27 Jul 4.8 08:04:42 15° W 08:08:23 40° NNW 08:12:57 10° NE visible
28 Jul 6.2 05:18:10 12° ENE 05:18:10 12° ENE 05:18:38 10° ENE visible
28 Jul 4.0 06:56:08 56° WNW 06:56:41 61° NNW 07:01:28 10° NE visible
28 Jul 5.3 08:35:31 10° WNW 08:39:52 32° N 08:44:13 10° ENE visible
29 Jul 5.2 05:47:32 30° ENE 05:47:32 30° ENE 05:50:00 10° ENE visible
29 Jul 4.9 07:25:29 22° WNW 07:28:01 39° NNW 07:32:34 10° NE visible
29 Jul 5.4 09:07:02 10° WNW 09:11:24 33° N 09:15:46 10° ENE visible
30 Jul 4.3 06:16:52 54° N 06:16:52 54° N 06:21:05 10° NE visible
30 Jul 5.3 07:55:10 10° WNW 07:59:31 32° N 08:03:51 10° ENE visible
31 Jul 5.9 05:08:14 19° ENE 05:08:14 19° ENE 05:09:36 10° ENE visible
31 Jul 4.9 06:46:12 31° NW 06:47:39 38° NNW 06:52:10 10° NE visible
31 Jul 5.3 08:26:40 10° WNW 08:31:03 33° N 08:35:25 10° ENE visible
01 Aug 5.0 05:37:33 37° NE 05:37:33 37° NE 05:40:41 10° NE visible
01 Aug 5.3 07:15:30 13° WNW 07:19:08 32° N 07:23:29 10° ENE visible
01 Aug 4.9 08:57:53 10° NW 09:02:30 43° NNE 09:07:06 10° E visible
02 Aug 6.3 04:28:54 12° ENE 04:28:54 12° ENE 04:29:12 10° ENE visible
02 Aug 5.0 06:06:51 36° NNW 06:07:16 37° NNW 06:11:46 10° NE visible
02 Aug 5.3 07:46:18 10° WNW 07:50:41 33° N 07:55:04 10° ENE visible
03 Aug 5.6 04:58:12 24° NE 04:58:12 24° NE 05:00:16 10° NE visible
03 Aug 5.4 06:36:09 19° NW 06:38:47 31° N 06:43:06 10° ENE visible
03 Aug 4.8 08:17:29 10° NW 08:22:08 44° NNE 08:26:46 10° E visible
04 Aug 5.2 05:27:31 35° N 05:27:31 35° N 05:31:23 10° NE visible
04 Aug 5.3 07:05:55 10° WNW 07:10:19 34° N 07:14:43 10° ENE visible
04 Aug 3.9 08:48:33 10° WNW 08:53:23 75° NNE 08:58:13 10° ESE visible
05 Aug 6.1 04:18:56 15° NE 04:18:56 15° NE 04:19:52 10° NE visible
05 Aug 5.4 05:56:54 26° NW 05:58:25 31° N 06:02:45 10° ENE visible
05 Aug 4.7 07:37:05 10° NW 07:41:45 46° NNE 07:46:24 10° E visible
05 Aug 3.8 09:19:41 10° WNW 09:24:24 54° SW 09:29:06 10° SE visible
